[[{"header":{"parameterUnit":"m.s-1","parameterCategory":1,"la1":30.2991,"la2":30.254,"lo1":-89.0895,"lo2":-89.0444,"dy":0.0017,"dx":0.0017,"nx":28,"ny":28,"refTime":"2025-08-06T03:00:00:Z","depth":0,"parameterNumber":2,"parameterNumberName":"U-component_of_WINDS"},"data":[0,0,0,0,0,0,0,0,0,0,0,0,0,0,0,0,0,0,0,0,0,0,0,0,0,0,0,0,0,0,0,0,0,0,0,0,0,0,0,0,0,0,0,0,0,0,0,0,0,0,0,0,0,0,0,0,0,0,-1.4459,-1.4459,0,-1.444,-1.444,-1.444,-1.4385,-1.4384,-1.4383,-1.4381,-1.4365,-1.4366,-1.4367,0,0,0,0,0,0,0,0,0,0,0,0,0,-1.445,-1.445,-1.4459,-1.4459,-1.4459,-1.444,-1.444,-1.444,-1.4385,-1.4384,-1.4382,-1.4381,-1.4365,-1.4366,-1.4367,0,0,0,0,0,0,0,0,0,0,0,0,0,-1.4445,-1.445,-1.4459,-1.4429,-1.4426,-1.444,-1.444,-1.444,-1.4385,-1.4384,-1.4382,-1.438,-1.4365,-1.4366,-1.4367,-1.4409,0,0,-1.437,-1.437,0,0,0,0,0,0,0,0,-1.4445,-1.4445,-1.4434,-1.4431,-1.4428,-1.4413,-1.443,-1.443,-1.4386,-1.4401,-1.4381,-1.4379,-1.4383,-1.4382,-1.4383,-1.4408,-1.4408,-1.437,-1.4371,-1.4371,-1.4371,0,0,0,0,0,0,0,-1.4445,-1.4446,-1.4452,-1.4434,-1.443,-1.4417,-1.4414,-1.443,-1.4402,-1.44,-1.4396,-1.4394,-1.4381,-1.4382,-1.4382,-1.4408,-1.437,-1.4371,-1.4371,-1.4372,-1.4466,-1.4467,0,0,0,0,0,0,-1.445,-1.4446,-1.4452,-1.4451,-1.4432,-1.4419,-1.4416,-1.442,-1.4402,-1.4397,-1.4395,-1.4391,-1.4381,-1.4381,-1.4381,-1.4429,-1.4371,-1.4372,-1.4373,-1.4464,-1.4466,-1.4468,0,0,0,0,0,0,-1.445,-1.4451,-1.4453,-1.4447,-1.4447,-1.4421,-1.4426,-1.442,-1.4421,-1.4399,-1.4394,-1.4401,-1.438,-1.438,-1.4402,-1.4427,-1.4372,-1.4373,-1.4462,-1.4464,-1.4467,-1.4525,0,0,0,0,0,0,-1.445,-1.4451,-1.4467,-1.4448,-1.4447,-1.4474,-1.4427,-1.4421,-1.4423,-1.4417,-1.4403,-1.4399,-1.4378,-1.4401,-1.4403,-1.4428,-1.4374,-1.4459,-1.4463,-1.4466,-1.452,-1.4529,-1.4537,0,0,0,0,0,-1.445,-1.4485,-1.4468,-1.4469,-1.4466,-1.4475,-1.4475,-1.4449,-1.4425,-1.444,-1.4426,-1.44,-1.4424,-1.4404,-1.4406,-1.4431,-1.4457,-1.4462,-1.4466,-1.4517,-1.4527,-1.4536,0,0,0,0,0,0,-1.4508,-1.4482,-1.4463,-1.4493,-1.4487,-1.4466,-1.4485,-1.4461,-1.4463,-1.4458,-1.4427,-1.4424,-1.4451,-1.4443,-1.4421,-1.447,-1.4436,-1.4441,-1.4474,-1.4484,-1.4492,-1.4493,-1.4375,0,0,0,0,0,-1.4525,-1.4534,-1.451,-1.4539,-1.4537,-1.4512,-1.4515,-1.4495,-1.4488,-1.4485,-1.4473,-1.4467,-1.4473,-1.4479,-1.4483,-1.4519,-1.4515,-1.4537,-1.4545,-1.4552,-1.4557,-1.4574,-1.4583,-1.4482,-1.4482,-1.4482,0,0,-1.4559,-1.4545,-1.4553,-1.455,-1.4543,-1.4554,-1.451,-1.4523,-1.453,-1.4488,-1.4507,-1.4498,-1.449,-1.4519,-1.4531,-1.4513,-1.4584,-1.4558,-1.4563,-1.4564,-1.4579,-1.4589,-1.4597,-1.4485,-1.4484,-1.4484,0,0,-1.4626,-1.4617,-1.4639,-1.4632,-1.4622,-1.4604,-1.461,-1.4592,-1.4584,-1.4603,-1.457,-1.4579,-1.4591,-1.4586,-1.4586,-1.4649,-1.4625,-1.4652,-1.4694,-1.4711,-1.4719,-1.4726,-1.4748,-1.4756,-1.4656,-1.4657,-1.4657,0,-1.467,-1.4683,-1.4654,-1.4669,-1.4668,-1.4628,-1.465,-1.4646,-1.4638,-1.4639,-1.4619,-1.4631,-1.4624,-1.465,-1.4665,-1.4666,-1.4671,-1.4653,-1.472,-1.4727,-1.4733,-1.4753,-1.4762,-1.466,-1.4659,-1.4659,-1.4659,0,-1.4738,-1.4748,-1.4767,-1.4758,-1.476,-1.4779,-1.4752,-1.4758,-1.4738,-1.4723,-1.4742,-1.4731,-1.4732,-1.4737,-1.4718,-1.476,-1.475,-1.4726,-1.4691,-1.4746,-1.4765,-1.4773,-1.4665,-1.4663,-1.4662,-1.4662,0,0,-1.4842,-1.4816,-1.4823,-1.4818,-1.4803,-1.481,-1.4827,-1.4826,-1.4831,-1.4827,-1.484,-1.485,-1.4827,-1.4826,-1.4806,-1.4821,-1.4871,-1.4795,-1.4794,-1.4809,-1.4916,-1.4934,-1.4943,-1.4855,-1.4856,-1.4857,-1.4916,0,-1.4905,-1.4931,-1.4904,-1.4935,-1.4944,-1.4905,-1.492,-1.4912,-1.4898,-1.4903,-1.4888,-1.4896,-1.4865,-1.4864,-1.4877,-1.4862,-1.4892,-1.4858,-1.4867,-1.4867,-1.4869,-1.4953,-1.4972,-1.5029,-1.4924,-1.4925,-1.4926,0,-1.4982,-1.4979,-1.5011,-1.4992,-1.4994,-1.5008,-1.5004,-1.501,-1.5,-1.4989,-1.4987,-1.4963,-1.4978,-1.4944,-1.4964,-1.4941,-1.4943,-1.4936,-1.4938,-1.4937,-1.49,-1.4955,-1.5046,-1.5055,-1.4937,-1.4936,-1.4935,0,-1.5054,-1.5058,-1.5077,-1.5074,-1.5053,-1.5063,-1.5055,-1.5043,-1.5044,-1.5041,-1.5042,-1.5042,-1.5042,-1.5042,-1.5018,-1.4996,-1.5041,-1.5006,-1.5033,-1.5033,-1.5044,-1.5043,-1.5136,-1.5046,-1.5046,-1.5046,-1.5046,0,-1.5127,-1.5148,-1.5109,-1.5121,-1.5143,-1.5112,-1.5135,-1.5123,-1.5112,-1.5121,-1.5089,-1.5098,-1.5066,-1.5072,-1.5054,-1.5073,-1.5073,-1.5065,-1.5059,-1.5067,-1.5068,-1.5068,-1.5063,-1.5048,-1.5048,-1.5047,-1.5047,0,-1.5211,-1.5186,-1.5204,-1.5182,-1.5176,-1.5194,-1.5174,-1.5184,-1.5168,-1.5179,-1.518,-1.5155,-1.516,-1.5136,-1.5138,-1.5125,-1.5153,-1.5142,-1.5156,-1.5153,-1.518,-1.5178,-1.5276,-1.5287,-1.5191,-1.5192,-1.5192,0,-1.5259,-1.5273,-1.5252,-1.5255,-1.5247,-1.5253,-1.5253,-1.5223,-1.5225,-1.5214,-1.5226,-1.5228,-1.5228,-1.5238,-1.522,-1.522,-1.5208,-1.5243,-1.5208,-1.5215,-1.5208,-1.5207,-1.5208,-1.525,-1.5251,-1.5252,-1.5253,0,-1.5346,-1.5332,-1.5333,-1.533,-1.5331,-1.5327,-1.5321,-1.5326,-1.5293,-1.5297,-1.5301,-1.5301,-1.5301,-1.5303,-1.53,-1.5292,-1.5267,-1.5264,-1.527,-1.5278,-1.5285,-1.528,-1.5175,-1.5262,-1.5261,-1.526,-1.526,-1.5259,-1.5413,-1.5423,-1.5409,-1.5411,-1.5403,-1.5398,-1.5406,-1.5389,-1.5392,-1.5389,-1.5371,-1.5378,-1.5367,-1.536,-1.5354,-1.5359,-1.5343,-1.5352,-1.5355,-1.5357,-1.5361,-1.5284,-1.5359,-1.5359,-1.5358,-1.5358,-1.5358,0,-1.5497,-1.5486,-1.5488,-1.548,-1.5481,-1.5456,-1.5448,-1.5451,-1.5457,-1.5448,-1.5448,-1.5452,-1.5454,-1.5436,-1.5435,-1.5443,-1.5431,-1.5444,-1.5443,-1.5441,-1.5376,-1.5371,-1.5453,-1.5453,-1.5453,-1.5453,-1.5453,-1.5453,-1.5541,-1.5558,-1.5542,-1.5554,-1.5543,-1.5548,-1.5546,-1.5541,-1.5533,-1.5539,-1.5539,-1.5527,-1.5514,-1.5512,-1.5512,-1.5507,-1.5508,-1.5524,-1.5515,-1.5455,-1.5446,-1.5437,-1.5431,-1.5525,-1.5525,-1.5579,-1.5579,-1.5579]},{"header":{"parameterUnit":"m.s-1","parameterCategory":1,"la1":30.2991,"la2":30.254,"lo1":-89.0895,"lo2":-89.0444,"dy":0.0017,"dx":0.0017,"nx":28,"ny":28,"refTime":"2025-08-06T03:00:00:Z","depth":0,"parameterNumber":3,"parameterNumberName":"V-component_of_WINDS"},"data":[0,0,0,0,0,0,0,0,0,0,0,0,0,0,0,0,0,0,0,0,0,0,0,0,0,0,0,0,0,0,0,0,0,0,0,0,0,0,0,0,0,0,0,0,0,0,0,0,0,0,0,0,0,0,0,0,0,0,-2.12,-2.1202,0,-2.1365,-2.1367,-2.1369,-2.1396,-2.1394,-2.1393,-2.1392,-2.1564,-2.157,-2.1576,0,0,0,0,0,0,0,0,0,0,0,0,0,-2.0911,-2.0916,-2.12,-2.1202,-2.1204,-2.1365,-2.1367,-2.1369,-2.1396,-2.1394,-2.1393,-2.1391,-2.1562,-2.1569,-2.1576,0,0,0,0,0,0,0,0,0,0,0,0,0,-2.1052,-2.0918,-2.1199,-2.1236,-2.1241,-2.1364,-2.1367,-2.137,-2.1397,-2.1394,-2.1392,-2.139,-2.156,-2.1568,-2.1577,-2.1675,0,0,-2.1604,-2.1608,0,0,0,0,0,0,0,0,-2.1044,-2.1063,-2.1229,-2.1234,-2.124,-2.1358,-2.1328,-2.1472,-2.1397,-2.1338,-2.1392,-2.1389,-2.1497,-2.1511,-2.1547,-2.1683,-2.1691,-2.1605,-2.161,-2.1614,-2.1617,0,0,0,0,0,0,0,-2.1034,-2.1056,-2.1265,-2.1231,-2.1238,-2.1246,-2.1264,-2.1356,-2.1428,-2.1343,-2.1345,-2.1364,-2.15,-2.1538,-2.1551,-2.1693,-2.1605,-2.1613,-2.1618,-2.1622,-2.1921,-2.1923,0,0,0,0,0,0,-2.1017,-2.1048,-2.126,-2.127,-2.1135,-2.1253,-2.1273,-2.1322,-2.1427,-2.1441,-2.1366,-2.1365,-2.1524,-2.1541,-2.1557,-2.1681,-2.1614,-2.1623,-2.1628,-2.1918,-2.1922,-2.1924,0,0,0,0,0,0,-2.1011,-2.1036,-2.1253,-2.116,-2.1188,-2.126,-2.1315,-2.1326,-2.1365,-2.1444,-2.1457,-2.1392,-2.1523,-2.1545,-2.1646,-2.1688,-2.1627,-2.1635,-2.1915,-2.1919,-2.1923,-2.1929,0,0,0,0,0,0,-2.1003,-2.1034,-2.1071,-2.116,-2.1193,-2.1338,-2.1318,-2.1331,-2.138,-2.138,-2.1472,-2.1485,-2.1523,-2.1633,-2.1655,-2.1699,-2.1642,-2.1912,-2.1917,-2.1922,-2.1925,-2.1932,-2.1938,0,0,0,0,0,-2.0992,-2.1066,-2.1073,-2.1098,-2.1241,-2.1341,-2.1359,-2.1401,-2.1383,-2.1422,-2.1473,-2.1482,-2.1679,-2.1643,-2.1668,-2.1715,-2.191,-2.1916,-2.1921,-2.1922,-2.1931,-2.1938,0,0,0,0,0,0,-2.0981,-2.1079,-2.1087,-2.1192,-2.1257,-2.1345,-2.1395,-2.1408,-2.1481,-2.1479,-2.1527,-2.1548,-2.1647,-2.1691,-2.1649,-2.1817,-2.1793,-2.1804,-2.1785,-2.1794,-2.18,-2.1789,-2.1649,0,0,0,0,0,-2.099,-2.1062,-2.1144,-2.1229,-2.1261,-2.1322,-2.1367,-2.1393,-2.1464,-2.1493,-2.1551,-2.162,-2.1698,-2.1748,-2.1823,-2.1931,-2.1953,-2.1976,-2.1982,-2.1987,-2.1997,-2.206,-2.2072,-2.1944,-2.1944,-2.1944,0,0,-2.1011,-2.1073,-2.1116,-2.1228,-2.1282,-2.1357,-2.1346,-2.1425,-2.1482,-2.1505,-2.1605,-2.165,-2.173,-2.1835,-2.1885,-2.1875,-2.2037,-2.1995,-2.1998,-2.2006,-2.2067,-2.2079,-2.209,-2.1948,-2.1947,-2.1946,0,0,-2.1088,-2.1141,-2.1218,-2.1273,-2.1355,-2.1395,-2.1413,-2.1499,-2.153,-2.163,-2.165,-2.1718,-2.185,-2.1907,-2.1953,-2.2052,-2.2064,-2.2075,-2.2111,-2.2171,-2.2181,-2.219,-2.2227,-2.224,-2.2084,-2.2084,-2.2084,0,-2.1104,-2.1217,-2.1257,-2.1336,-2.1385,-2.1408,-2.1488,-2.1539,-2.1642,-2.1676,-2.1663,-2.1831,-2.1886,-2.2006,-2.203,-2.2066,-2.209,-2.2066,-2.2176,-2.2185,-2.2195,-2.2231,-2.2245,-2.2085,-2.2085,-2.2085,-2.2085,0,-2.1234,-2.1311,-2.1364,-2.1462,-2.1517,-2.1596,-2.165,-2.1701,-2.1722,-2.1764,-2.1867,-2.1934,-2.2024,-2.2054,-2.2076,-2.2178,-2.217,-2.2165,-2.2143,-2.2207,-2.2242,-2.2256,-2.2086,-2.2086,-2.2086,-2.2085,0,0,-2.131,-2.1428,-2.1447,-2.1493,-2.1584,-2.1646,-2.1726,-2.1814,-2.1858,-2.1928,-2.1998,-2.2109,-2.2106,-2.2159,-2.2187,-2.2239,-2.2316,-2.2229,-2.2232,-2.2245,-2.2435,-2.244,-2.2455,-2.2323,-2.2326,-2.2328,-2.2429,0,-2.1399,-2.1542,-2.1581,-2.1703,-2.1777,-2.18,-2.187,-2.1935,-2.1976,-2.2045,-2.2091,-2.217,-2.2159,-2.2191,-2.2244,-2.2295,-2.2355,-2.2288,-2.2391,-2.2394,-2.2373,-2.2473,-2.2478,-2.2571,-2.2443,-2.2445,-2.2447,0,-2.1523,-2.1595,-2.1724,-2.1808,-2.184,-2.1902,-2.1987,-2.2052,-2.2126,-2.2153,-2.2211,-2.2234,-2.2321,-2.2291,-2.2412,-2.2366,-2.241,-2.2442,-2.2446,-2.246,-2.2427,-2.2492,-2.2601,-2.2616,-2.2469,-2.2467,-2.2465,0,-2.1569,-2.1698,-2.1792,-2.183,-2.1929,-2.1973,-2.2016,-2.2088,-2.2139,-2.2212,-2.2246,-2.2329,-2.2375,-2.2439,-2.2485,-2.2459,-2.2602,-2.2576,-2.2629,-2.2628,-2.266,-2.2658,-2.2781,-2.2684,-2.2684,-2.2683,-2.2683,0,-2.1667,-2.1746,-2.1814,-2.1873,-2.1962,-2.2006,-2.2094,-2.2138,-2.2202,-2.2271,-2.2295,-2.2359,-2.2414,-2.2486,-2.2522,-2.2618,-2.2638,-2.2663,-2.2672,-2.2663,-2.266,-2.2695,-2.269,-2.2687,-2.2686,-2.2686,-2.2685,0,-2.1734,-2.1783,-2.1888,-2.1973,-2.1996,-2.2058,-2.2132,-2.219,-2.2231,-2.2318,-2.2341,-2.2407,-2.2493,-2.2544,-2.2652,-2.2677,-2.2784,-2.2789,-2.2759,-2.2764,-2.2814,-2.281,-2.2965,-2.2989,-2.2874,-2.2875,-2.2876,0,-2.1795,-2.1856,-2.1947,-2.1994,-2.2038,-2.2114,-2.2165,-2.221,-2.2264,-2.2353,-2.2401,-2.2488,-2.2561,-2.2698,-2.2756,-2.284,-2.2849,-2.2897,-2.2862,-2.2851,-2.2853,-2.285,-2.2857,-2.2904,-2.2905,-2.2906,-2.2907,0,-2.1898,-2.1919,-2.1992,-2.2074,-2.2134,-2.2201,-2.2268,-2.2305,-2.2362,-2.2421,-2.2508,-2.2565,-2.2675,-2.2763,-2.2851,-2.2897,-2.2913,-2.2917,-2.2934,-2.2927,-2.2908,-2.2922,-2.2778,-2.2914,-2.2913,-2.2913,-2.2912,-2.2912,-2.1966,-2.2022,-2.2095,-2.2176,-2.2231,-2.2292,-2.2352,-2.24,-2.2474,-2.2567,-2.2589,-2.2682,-2.2756,-2.2877,-2.2925,-2.2999,-2.2992,-2.3015,-2.3022,-2.3028,-2.3031,-2.2893,-2.3015,-2.3015,-2.3015,-2.3015,-2.3015,0,-2.2073,-2.2121,-2.2195,-2.2287,-2.2351,-2.2357,-2.2431,-2.2485,-2.2566,-2.2633,-2.2703,-2.2805,-2.289,-2.2954,-2.3041,-2.3089,-2.3098,-2.311,-2.3109,-2.312,-2.3032,-2.301,-2.3102,-2.3102,-2.3102,-2.3102,-2.3101,-2.3101,-2.2137,-2.2233,-2.2262,-2.2386,-2.2434,-2.2524,-2.2567,-2.2624,-2.2678,-2.279,-2.286,-2.2901,-2.2968,-2.306,-2.3139,-2.3156,-2.3188,-2.32,-2.3218,-2.3135,-2.3126,-2.3117,-2.3097,-2.3205,-2.3206,-2.3301,-2.3302,-2.3302]}]]